This is the latest recevied weather packets stored in our database for station/object K0APR. If no packets are shown the sender has not sent any weather packets the latest 10 day(s).
| Time | Temp. | Humidity | Pressure | Rain* | Wind** | Luminosity | Snow |
|---|---|---|---|---|---|---|---|
| 1777917819 | 13.33° C | 44% | 1003.6 hPa | 0 mm | - | 281 W/m² | - |
| 1777917518 | 12.78° C | 44% | 1003.6 hPa | 0 mm | - | 502 W/m² | - |
| 1777917214 | 13.33° C | 43% | 1003.6 hPa | 0 mm | - | 445 W/m² | - |
| 1777916912 | 13.33° C | 43% | 1003.6 hPa | 0 mm | - | 470 W/m² | - |
| 1777916609 | 13.89° C | 42% | 1003.6 hPa | 0 mm | - | 835 W/m² | - |
| 1777916306 | 13.89° C | 42% | 1003.2 hPa | 0 mm | - | 821 W/m² | - |
| 1777916003 | 14.44° C | 41% | 1003.6 hPa | 0 mm | - | 691 W/m² | - |
| 1777915700 | 14.44° C | 39% | 1003.6 hPa | 0 mm | - | 628 W/m² | - |
| 1777915396 | 14.44° C | 39% | 1003.2 hPa | 0 mm | - | 583 W/m² | - |
| 1777915092 | 14.44° C | 40% | 1002.9 hPa | 0 mm | - | 507 W/m² | - |
| 1777914790 | 14.44° C | 40% | 1002.9 hPa | 0 mm | - | 480 W/m² | - |
| 1777914487 | 15° C | 39% | 1002.9 hPa | 0 mm | - | 642 W/m² | - |
| 1777914184 | 14.44° C | 38% | 1002.4 hPa | 0 mm | - | 723 W/m² | - |
| 1777913880 | 14.44° C | 37% | 1002.9 hPa | 0 mm | - | 654 W/m² | - |
| 1777913576 | 14.44° C | 37% | 1002.4 hPa | 0 mm | - | 611 W/m² | - |
| 1777913272 | 14.44° C | 38% | 1002.9 hPa | 0 mm | - | 629 W/m² | - |
| 1777912970 | 14.44° C | 40% | 1002.9 hPa | 0 mm | - | 537 W/m² | - |
| 1777912666 | 15° C | 41% | 1002.4 hPa | 0 mm | - | 586 W/m² | - |
| 1777912362 | 15° C | 46% | 1002.4 hPa | 0 mm | - | 561 W/m² | - |
| 1777912058 | 14.44° C | 47% | 1002.4 hPa | 0 mm | - | 637 W/m² | - |
| 1777911754 | 14.44° C | 48% | 1002.4 hPa | 0 mm | - | 660 W/m² | - |
| 1777911451 | 14.44° C | 52% | 1002.4 hPa | 0 mm | - | 709 W/m² | - |
| 1777911148 | 14.44° C | 48% | 1002.4 hPa | 0 mm | - | 590 W/m² | - |
| 1777910846 | 14.44° C | 48% | 1002.1 hPa | 0 mm | - | 611 W/m² | - |
| 1777910542 | 14.44° C | 44% | 1002.1 hPa | 0 mm | - | 580 W/m² | - |
* Rain latest hour (hover to see other rain measurements)
** Current wind speed in m/s (hover to see current wind gust speed)